Tracking 28336 objects as of 4-Dec-2023
HD Live streaming from Space Station
objects crossing your sky now

STARLINK-5720

Track STARLINK-5720 now!
10-day predictions
STARLINK-5720 is classified as:


NORAD ID: 55619
Int'l Code: 2023-020BC
Perigee: 565.5 km
Apogee: 567.0 km
Inclination: 43.0 °
Period: 95.8 minutes
Semi major axis: 6937 km
RCS: Unknown
Launch date: February 12, 2023
Source: United States (US)
Launch site: AIR FORCE EASTERN TEST RANGE (AFETR)
Your satellite tracking list
Your tracking list is empty




NASA's NSSDC Master Catalog

Two Line Element Set (TLE):
1 55619U 23020BC  23337.51975212 -.00003594  00000-0 -25119-3 0  9997
2 55619  43.0007 166.0908 0001126 268.0823  91.9890 15.02527511 44644
Source of the keplerian elements: AFSPC